Binghamton, NY

5:06 PM EST on December 08, 2019 (GMT -0500)
Binghamton Regional-Link

Weather History for KBGM - November, 2019

Change the Weather History Date:

Friday, November 22, 2019

  Actual Average Record
Temperature  
Mean Temperature 38 °F 36 °F  
Max Temperature 47 °F 42 °F 65 °F (2007)
Min Temperature 28 °F 29 °F 3 °F (2018)
Degree Days  
Heating Degree Days 28 29  
Month to date heating degree days 717 556  
Since 1 July heating degree days 1329 1328  
Cooling Degree Days 0 0  
Month to date cooling degree days 0 0  
Year to date cooling degree days 389 381  
Moisture  
Dew Point 31 °F    
Average Humidity 74    
Maximum Humidity 100    
Minimum Humidity 58    
Precipitation  
Precipitation 0.16 in 0.12 in 1.75 in (1991)
Month to date precipitation 0.99 2.42  
Year to date precipitation 39.50 35.59  
Snow  
Snow T in 0.30 in 2.90 in (2016)
Month to date snowfall 4.0 3.3  
Since 1 July snowfall 4.0 4.3  
Since 1 September snowfall 4.0 4.3  
Snow Depth 0.00 in    
Sea Level Pressure  
Sea Level Pressure 29.80 in    
Wind  
Wind Speed 11 mph ()    
Max Wind Speed 24 mph    
Max Gust Speed 36 mph    
Visibility 8.3 miles    
Events Rain , Snow    
T = Trace of Precipitation, MM = Missing Value Source: Averaged Metar Reports

Daily Weather History Graph

Daily Weather History Graph

Search for Another Location

Airport or City:

Astronomy

Nov. 22, 2019 Rise Set
Actual Time 7:02 AM EST 4:37 PM EST
Civil Twilight 6:31 AM EST 5:07 PM EST
Nautical Twilight 5:57 AM EST 5:42 PM EST
Astronomical Twilight 5:24 AM EST 6:15 PM EST
Moon 1:59 AM EST (11/22) 2:42 PM EST (11/22)
Length of Visible Light 10h 35m
Length of Day
9h 34m
Waning Crescent, 20% of the Moon is Illuminated
Nov 22
Waning Crescent
Nov 26
New
Dec 4
First Quarter
Dec 12
Full
Dec 18
Last Quarter

Hourly Weather History & Observations

Time (EST) Temp. Windchill Dew Point Humidity Pressure Visibility Wind Dir Wind Speed Gust Speed Precip Events Conditions
12:12 AM 42.1 °F 34.9 °F 32.0 °F 67% 29.81 in 10.0 mi SSW 13.8 mph 25.3 mph N/A   Overcast
12:49 AM 42.8 °F 37.0 °F 32.0 °F 66% 29.80 in 10.0 mi SSW 10.4 mph 20.7 mph N/A   Overcast
12:53 AM 43.0 °F 36.8 °F 32.0 °F 65% 29.82 in 10.0 mi SSW 11.5 mph 20.7 mph N/A   Overcast
1:41 AM 44.1 °F 38.1 °F 33.1 °F 65% 29.79 in 10.0 mi SW 11.5 mph - N/A   Overcast
1:51 AM 44.6 °F 38.8 °F 33.8 °F 66% 29.78 in 10.0 mi SSW 11.5 mph - N/A   Overcast
1:53 AM 44.1 °F 38.6 °F 33.1 °F 65% 29.81 in 10.0 mi SSW 10.4 mph - N/A   Overcast
2:53 AM 45.0 °F 38.5 °F 34.0 °F 65% 29.78 in 10.0 mi SSW 13.8 mph - N/A   Overcast
3:53 AM 45.0 °F 38.9 °F 35.1 °F 68% 29.76 in 10.0 mi SW 12.7 mph 17.3 mph N/A   Overcast
4:09 AM 45.0 °F 39.7 °F 35.1 °F 68% 29.73 in 10.0 mi SW 10.4 mph 19.6 mph N/A   Overcast
4:53 AM 46.0 °F 41.0 °F 36.0 °F 68% 29.74 in 10.0 mi SW 10.4 mph - N/A   Overcast
5:53 AM 46.0 °F 40.2 °F 36.0 °F 68% 29.72 in 10.0 mi SW 12.7 mph - N/A   Overcast
6:05 AM 46.9 °F - 36.0 °F 66% 29.69 in 10.0 mi SSW 12.7 mph 19.6 mph N/A   Overcast
6:53 AM 46.9 °F - 37.0 °F 68% 29.69 in 10.0 mi SW 12.7 mph 23.0 mph N/A   Overcast
7:53 AM 45.0 °F 38.9 °F 39.9 °F 82% 29.68 in 2.5 mi SW 12.7 mph 20.7 mph 0.00 in Rain Light Rain
8:15 AM 44.1 °F 39.0 °F 41.0 °F 89% 29.67 in 2.5 mi WSW 9.2 mph - 0.01 in Rain Light Rain
8:24 AM 43.0 °F 38.2 °F 41.0 °F 93% 29.68 in 2.0 mi West 8.1 mph - 0.02 in Rain Rain
8:42 AM 43.0 °F 36.8 °F 42.1 °F 97% 29.69 in 2.0 mi West 11.5 mph 19.6 mph 0.04 in Rain Light Rain
8:53 AM 43.0 °F 36.4 °F 42.1 °F 97% 29.73 in 1.2 mi NW 12.7 mph - 0.06 in Rain Rain
9:07 AM 42.1 °F 35.7 °F 42.1 °F 100% 29.70 in 2.0 mi West 11.5 mph - 0.01 in Rain Light Rain
9:27 AM 42.1 °F 34.9 °F 41.0 °F 96% 29.71 in 2.0 mi WNW 13.8 mph - 0.03 in Rain Light Rain
9:53 AM 42.1 °F 34.9 °F 39.9 °F 92% 29.75 in 2.0 mi WNW 13.8 mph 23.0 mph 0.06 in Rain Light Rain
10:13 AM 39.9 °F 32.1 °F 37.0 °F 89% 29.74 in 2.0 mi NW 13.8 mph 25.3 mph 0.02 in Rain Light Rain
10:53 AM 37.9 °F 30.5 °F 35.1 °F 89% 29.78 in 2.0 mi NW 11.5 mph 18.4 mph 0.03 in Rain Light Rain
11:03 AM 37.0 °F 28.5 °F 33.1 °F 86% 29.75 in 10.0 mi NW 13.8 mph 26.5 mph 0.00 in Rain Light Rain
11:04 AM 37.0 °F 28.9 °F 33.1 °F 86% 29.75 in 10.0 mi NW 12.7 mph 24.2 mph 0.00 in Rain Light Rain
11:53 AM 36.0 °F 27.1 °F 32.0 °F 86% 29.79 in 9.0 mi WNW 13.8 mph 25.3 mph 0.01 in   Overcast
12:42 PM 36.0 °F 28.5 °F 32.0 °F 86% 29.75 in 10.0 mi West 10.4 mph - 0.00 in   Overcast
12:53 PM 37.0 °F 28.9 °F 30.9 °F 79% 29.78 in 10.0 mi WNW 12.7 mph 20.7 mph 0.00 in   Overcast
1:02 PM 37.0 °F 29.8 °F 30.0 °F 76% 29.75 in 10.0 mi WNW 10.4 mph 24.2 mph N/A   Overcast
1:11 PM 37.0 °F 29.8 °F 30.0 °F 76% 29.75 in 10.0 mi WNW 10.4 mph - N/A   Overcast
1:46 PM 37.0 °F 28.5 °F 28.0 °F 70% 29.75 in 10.0 mi NW 13.8 mph 23.0 mph N/A   Overcast
1:53 PM 36.0 °F 26.0 °F 28.0 °F 73% 29.78 in 10.0 mi NW 17.3 mph 27.6 mph 0.00 in   Overcast
2:00 PM 36.0 °F 26.7 °F 27.0 °F 70% 29.76 in 10.0 mi NNW 15.0 mph 27.6 mph 0.00 in Rain Light Rain
2:53 PM 34.0 °F 25.5 °F 27.0 °F 75% 29.81 in 9.0 mi NW 11.5 mph 21.9 mph 0.00 in Snow Light Snow
3:53 PM 33.1 °F 23.0 °F 23.0 °F 66% 29.85 in 10.0 mi WNW 15.0 mph 26.5 mph 0.00 in   Overcast
4:00 PM 33.1 °F 22.6 °F 23.0 °F 66% 29.81 in 10.0 mi NW 16.1 mph 26.5 mph 0.00 in Snow Light Snow
4:53 PM 32.0 °F 20.5 °F 21.9 °F 66% 29.87 in 10.0 mi NW 18.4 mph 28.8 mph 0.00 in   Overcast
5:01 PM 32.0 °F 20.8 °F 21.9 °F 66% 29.84 in 10.0 mi WNW 17.3 mph 27.6 mph N/A   Overcast
5:53 PM 32.0 °F 21.2 °F 21.0 °F 64% 29.91 in 10.0 mi NW 16.1 mph 24.2 mph N/A   Overcast
6:03 PM 30.9 °F 21.2 °F 21.9 °F 69% 29.88 in 10.0 mi NW 12.7 mph 23.0 mph N/A   Overcast
6:14 PM 30.9 °F 19.1 °F 21.0 °F 67% 29.89 in 10.0 mi NW 18.4 mph 31.1 mph N/A   Overcast
6:53 PM 30.9 °F 19.4 °F 19.0 °F 61% 29.96 in 10.0 mi NW 17.3 mph 28.8 mph N/A   Overcast
7:53 PM 30.0 °F 21.1 °F 19.0 °F 64% 29.99 in 10.0 mi NW 10.4 mph - N/A   Overcast
8:53 PM 30.0 °F 18.7 °F 18.0 °F 61% 29.99 in 10.0 mi NW 16.1 mph 25.3 mph N/A   Overcast
10:53 PM 28.9 °F 21.1 °F 18.0 °F 64% 30.01 in 10.0 mi NW 8.1 mph - N/A   Overcast
11:12 PM 28.9 °F 21.1 °F 19.0 °F 67% 29.96 in 10.0 mi NW 8.1 mph - N/A   Overcast
11:53 PM 28.0 °F 18.6 °F 18.0 °F 66% 30.01 in 10.0 mi NW 10.4 mph 17.3 mph N/A   Mostly Cloudy